DW1274 Weather Reports


time (UTC)temp
C
wind
direction
speed
KPH
gust
KPH
rain 1hr
cm
rain 24hr
cm
rain mn
cm
humidity
%
barometer
mb
20190322190707 22 261 11.3 24.1 0.00 0.00 0.00 31 1015.3
20190322190207 22 318 8.0 24.1 0.00 0.00 0.00 34 1015.4
20190322185706 22 296 9.7 24.1 0.00 0.00 0.00 33 1015.6
20190322185206 22 251 8.0 20.9 0.00 0.00 0.00 33 1015.5
20190322184706 22 265 9.7 22.5 0.00 0.00 0.00 33 1015.6
20190322184207 22 263 11.3 25.7 0.00 0.00 0.00 34 1015.7
20190322183707 21 343 11.3 30.6 0.00 0.00 0.00 34 1015.7
20190322183207 21 278 12.9 30.6 0.00 0.00 0.00 35 1015.8
20190322182706 21 317 8.0 30.6 0.00 0.00 0.00 33 1015.9
20190322182207 22 298 4.8 20.9 0.00 0.00 0.00 34 1015.9
20190322181707 21 300 9.7 24.1 0.00 0.00 0.00 33 1015.9
20190322181206 21 264 12.9 24.1 0.00 0.00 0.00 34 1015.9
20190322180708 21 271 8.0 25.7 0.00 0.00 0.00 33 1016.1
20190322180208 21 277 6.4 27.4 0.00 0.00 0.00 35 1016.2
20190322175706 21 294 11.3 27.4 0.00 0.00 0.00 35 1016.4
20190322175207 21 245 12.9 27.4 0.00 0.00 0.00 34 1016.5
20190322174707 21 290 9.7 24.1 0.00 0.00 0.00 35 1016.5
20190322174206 21 246 8.0 25.7 0.00 0.00 0.00 36 1016.4
20190322173707 21 293 6.4 25.7 0.00 0.00 0.00 37 1016.6
20190322173206 20 292 8.0 25.7 0.00 0.00 0.00 37 1016.6
20190322172707 20 293 11.3 22.5 0.00 0.00 0.00 37 1016.7
20190322172207 20 289 12.9 22.5 0.00 0.00 0.00 39 1017.0
20190322171706 20 278 12.9 22.5 0.00 0.00 0.00 39 1017.1
20190322171207 20 311 11.3 24.1 0.00 0.00 0.00 39 1017.0
20190322170706 20 257 11.3 24.1 0.00 0.00 0.00 39 1017.0
20190322170207 19 300 11.3 24.1 0.00 0.00 0.00 39 1017.1
20190322165706 19 296 12.9 25.7 0.00 0.00 0.00 38 1017.0
20190322165206 19 309 12.9 25.7 0.00 0.00 0.00 37 1017.1
20190322164707 19 292 12.9 27.4 0.00 0.00 0.00 37 1017.1
20190322164207 19 288 14.5 27.4 0.00 0.00 0.00 38 1017.1
20190322163707 18 304 14.5 29.0 0.00 0.00 0.00 38 1017.1
20190322163207 18 288 17.7 29.0 0.00 0.00 0.00 38 1017.2
20190322162706 18 266 17.7 32.2 0.00 0.00 0.00 39 1017.2
20190322162209 18 293 17.7 32.2 0.00 0.00 0.00 40 1017.2
20190322161708 18 277 17.7 27.4 0.00 0.00 0.00 40 1017.2
20190322161207 18 277 12.9 24.1 0.00 0.00 0.00 41 1017.3
20190322160707 18 296 8.0 24.1 0.00 0.00 0.00 44 1017.4
20190322160206 18 284 9.7 24.1 0.00 0.00 0.00 46 1017.4
20190322155707 18 273 9.7 22.5 0.00 0.00 0.00 47 1017.5
20190322155206 17 227 12.9 27.4 0.00 0.00 0.00 48 1017.6
20190322154707 17 298 14.5 27.4 0.00 0.00 0.00 49 1017.6
20190322154207 17 278 14.5 24.1 0.00 0.00 0.00 49 1017.8
20190322153707 17 277 14.5 22.5 0.00 0.00 0.00 51 1017.8
20190322153206 17 267 14.5 27.4 0.00 0.00 0.00 53 1017.7
20190322152707 16 266 12.9 27.4 0.00 0.00 0.00 54 1017.9
20190322152207 16 242 11.3 27.4 0.00 0.00 0.00 54 1017.8
20190322151707 16 306 8.0 22.5 0.00 0.00 0.00 56 1017.7
20190322151207 16 269 9.7 25.7 0.00 0.00 0.00 58 1017.7
20190322150706 16 284 14.5 25.7 0.00 0.00 0.00 57 1017.7
20190322150207 16 269 12.9 24.1 0.00 0.00 0.00 57 1017.7
20190322145704 16 316 3.2 17.7 0.00 0.00 0.00 58 1017.5
20190322145207 16 269 0.0 0.0 0.00 0.00 0.00 58 1017.5
20190322144705 15 238 0.0 16.1 0.00 0.00 0.00 60 1017.4
20190322144207 15 283 1.6 17.7 0.00 0.00 0.00 60 1017.4
20190322143707 15 295 3.2 19.3 0.00 0.00 0.00 61 1017.5
20190322143206 15 280 6.4 19.3 0.00 0.00 0.00 62 1017.4
20190322142708 15 290 4.8 19.3 0.00 0.00 0.00 61 1017.4
20190322142207 14 288 6.4 19.3 0.00 0.00 0.00 62 1017.4
20190322141706 14 294 6.4 19.3 0.00 0.00 0.00 62 1017.5
20190322141206 14 255 4.8 20.9 0.00 0.00 0.00 63 1017.5
20190322140706 13 313 9.7 20.9 0.00 0.00 0.00 64 1017.4
20190322140206 13 292 8.0 20.9 0.00 0.00 0.00 64 1017.4
20190322135707 13 280 4.8 20.9 0.00 0.00 0.00 66 1017.4
20190322135207 13 279 6.4 20.9 0.00 0.00 0.00 67 1017.4
20190322134706 13 288 9.7 20.9 0.00 0.00 0.00 66 1017.4
20190322134208 13 296 9.7 20.9 0.00 0.00 0.00 67 1017.5
20190322133706 13 290 11.3 20.9 0.00 0.00 0.00 67 1017.5
20190322133207 12 326 9.7 20.9 0.00 0.00 0.00 68 1017.6
20190322132706 12 276 3.2 16.1 0.00 0.00 0.00 68 1017.5
20190322132207 12 295 0.0 0.0 0.00 0.00 0.00 69 1017.3
20190322131706 12 264 0.0 0.0 0.00 0.00 0.00 70 1017.3
20190322131207 12 276 0.0 0.0 0.00 0.00 0.00 72 1017.3
20190322130707 11 292 0.0 0.0 0.00 0.00 0.00 73 1017.3
20190322130210 11 292 0.0 0.0 0.00 0.00 0.00 74 1017.3
20190322125707 11 287 0.0 0.0 0.00 0.00 0.00 75 1017.3
20190322125207 10 280 0.0 0.0 0.00 0.00 0.00 76 1017.3
20190322124706 10 281 0.0 0.0 0.00 0.00 0.00 78 1017.2
20190322124207 10 282 0.0 0.0 0.00 0.00 0.00 79 1017.2
20190322123707 9 281 0.0 0.0 0.00 0.00 0.00 80 1017.1
20190322123209 9 281 0.0 0.0 0.00 0.00 0.00 80 1017.0
20190322122708 8 281 0.0 0.0 0.00 0.00 0.00 81 1017.0
20190322122209 8 281 0.0 0.0 0.00 0.00 0.00 81 1017.0
20190322121707 8 281 0.0 0.0 0.00 0.00 0.00 81 1016.9
20190322121209 8 281 0.0 0.0 0.00 0.00 0.00 81 1016.8
20190322120708 8 281 0.0 0.0 0.00 0.00 0.00 81 1016.7
20190322120210 8 281 0.0 0.0 0.00 0.00 0.00 81 1016.7
20190322115708 8 281 0.0 0.0 0.00 0.00 0.00 81 1016.7
20190322115208 8 281 0.0 0.0 0.00 0.00 0.00 81 1016.6
20190322114708 8 281 0.0 0.0 0.00 0.00 0.00 81 1016.6
20190322114208 8 281 0.0 0.0 0.00 0.00 0.00 81 1016.5
20190322113707 8 281 0.0 0.0 0.00 0.00 0.00 81 1016.5
20190322113209 8 281 0.0 0.0 0.00 0.00 0.00 82 1016.5
20190322112709 8 281 0.0 0.0 0.00 0.00 0.00 82 1016.4
20190322112209 7 281 0.0 0.0 0.00 0.00 0.00 82 1016.2
20190322111708 7 281 0.0 0.0 0.00 0.00 0.00 83 1016.0
20190322111208 7 281 0.0 0.0 0.00 0.00 0.00 83 1016.0
20190322110707 7 281 0.0 0.0 0.00 0.00 0.00 83 1015.9
20190322110209 7 281 0.0 0.0 0.00 0.00 0.00 83 1015.9
20190322105708 7 281 0.0 0.0 0.00 0.00 0.00 83 1015.8
20190322105208 7 281 0.0 0.0 0.00 0.00 0.00 83 1015.7
20190322104708 7 281 0.0 0.0 0.00 0.00 0.00 83 1015.7
20190322104208 7 281 0.0 0.0 0.00 0.00 0.00 83 1015.5
20190322103708 7 281 0.0 0.0 0.00 0.00 0.00 84 1015.4
20190322103210 7 281 0.0 0.0 0.00 0.00 0.00 84 1015.3
20190322102709 7 281 0.0 0.0 0.00 0.00 0.00 84 1015.2
20190322102209 7 281 0.0 0.0 0.00 0.00 0.00 84 1015.2
20190322101709 7 281 0.0 0.0 0.00 0.00 0.00 84 1015.1
20190322101209 7 281 0.0 0.0 0.00 0.00 0.00 83 1015.0
20190322100707 7 281 0.0 0.0 0.00 0.00 0.00 84 1015.0
20190322100210 7 281 0.0 0.0 0.00 0.00 0.00 84 1014.9
20190322095708 7 281 0.0 0.0 0.00 0.00 0.00 84 1014.9
20190322095208 7 281 0.0 0.0 0.00 0.00 0.00 83 1014.9
20190322094708 8 281 0.0 0.0 0.00 0.00 0.00 83 1014.8
20190322094208 8 281 0.0 0.0 0.00 0.00 0.00 83 1014.7
20190322093708 8 281 0.0 0.0 0.00 0.00 0.00 83 1014.6
20190322093209 8 281 0.0 0.0 0.00 0.00 0.00 83 1014.6
20190322092708 8 281 0.0 0.0 0.00 0.00 0.00 82 1014.6
20190322092208 8 281 0.0 0.0 0.00 0.00 0.00 82 1014.6
20190322091708 8 281 0.0 0.0 0.00 0.00 0.00 82 1014.6
20190322091208 8 281 0.0 0.0 0.00 0.00 0.00 81 1014.7
20190322090708 8 281 0.0 0.0 0.00 0.00 0.00 81 1014.7
20190322090209 8 281 0.0 0.0 0.00 0.00 0.00 82 1014.6
20190322085708 8 281 0.0 0.0 0.00 0.00 0.00 81 1014.6
20190322085208 8 281 0.0 0.0 0.00 0.00 0.00 81 1014.7
20190322084707 8 281 0.0 0.0 0.00 0.00 0.00 80 1014.8
20190322084207 8 281 0.0 0.0 0.00 0.00 0.00 80 1014.8
20190322083706 8 281 0.0 0.0 0.00 0.00 0.00 79 1014.8
20190322083207 8 281 0.0 0.0 0.00 0.00 0.00 79 1014.8
20190322082706 8 281 0.0 0.0 0.00 0.00 0.00 79 1014.9
20190322082207 8 281 0.0 0.0 0.00 0.00 0.00 79 1014.8
20190322081705 8 281 0.0 0.0 0.00 0.00 0.00 79 1014.8
20190322081207 8 281 0.0 0.0 0.00 0.00 0.00 78 1014.8
20190322080706 8 281 0.0 0.0 0.00 0.00 0.00 76 1014.9
20190322075706 9 281 0.0 0.0 0.00 0.00 0.00 75 1015.0
20190322075206 9 281 0.0 0.0 0.00 0.00 0.00 74 1015.0
20190322074707 9 281 0.0 0.0 0.00 0.00 0.00 75 1015.0
20190322074208 9 281 0.0 0.0 0.00 0.00 0.00 73 1015.1
20190322073706 9 281 0.0 0.0 0.00 0.00 0.00 74 1015.1
20190322073206 9 281 0.0 0.0 0.00 0.00 0.00 73 1015.1
20190322072706 10 281 0.0 0.0 0.00 0.00 0.00 72 1015.2
20190322072208 10 281 0.0 0.0 0.00 0.00 0.00 71 1015.3
20190322071706 10 281 0.0 0.0 0.00 0.00 0.00 71 1015.3
20190322071207 10 281 0.0 0.0 0.00 0.00 0.00 70 1015.3
20190322070707 10 281 0.0 0.0 0.00 0.00 0.00 71 1015.3
20190322070207 10 281 0.0 0.0 0.00 0.00 0.00 70 1015.4
20190322065707 10 281 0.0 0.0 0.00 0.00 0.00 70 1015.5
20190322065207 10 281 0.0 0.0 0.00 0.00 0.00 69 1015.5
20190322064706 10 281 0.0 0.0 0.00 0.00 0.00 70 1015.4
20190322064207 10 281 0.0 0.0 0.00 0.00 0.00 70 1015.6
20190322063706 11 281 0.0 0.0 0.00 0.00 0.00 68 1015.5
20190322063207 11 281 0.0 0.0 0.00 0.00 0.00 67 1015.5
20190322062706 11 281 0.0 0.0 0.00 0.00 0.00 67 1015.6
20190322062207 11 281 0.0 0.0 0.00 0.00 0.00 66 1015.7
20190322061707 11 281 0.0 0.0 0.00 0.00 0.00 66 1015.7
20190322061206 11 281 0.0 0.0 0.00 0.00 0.00 66 1015.7
20190322060706 11 281 0.0 0.0 0.00 0.00 0.00 66 1015.7
20190322060207 11 281 0.0 0.0 0.00 0.00 0.00 65 1015.7
20190322055708 11 281 0.0 0.0 0.00 0.00 0.00 65 1015.7
20190322055207 11 281 0.0 0.0 0.00 0.00 0.00 65 1015.7
20190322054704 11 281 0.0 0.0 0.00 0.00 0.00 65 1015.8
20190322054207 11 281 0.0 0.0 0.00 0.00 0.00 65 1015.8
20190322053706 12 281 0.0 0.0 0.00 0.00 0.00 64 1015.9
20190322053207 12 281 0.0 0.0 0.00 0.00 0.00 64 1015.9
20190322052707 12 281 0.0 0.0 0.00 0.00 0.00 63 1015.8
20190322052207 12 281 0.0 0.0 0.00 0.00 0.00 63 1015.8
20190322051705 12 281 0.0 0.0 0.00 0.00 0.00 62 1015.8
20190322051207 12 281 0.0 0.0 0.00 0.00 0.00 62 1015.8
20190322050707 12 281 0.0 0.0 0.00 0.00 0.00 61 1015.8
20190322050208 12 281 0.0 0.0 0.00 0.00 0.00 61 1015.6
20190322045707 12 281 0.0 0.0 0.00 0.00 0.00 61 1015.6
20190322045207 12 281 0.0 0.0 0.00 0.00 0.00 60 1015.6
20190322044706 12 281 0.0 0.0 0.00 0.00 0.00 60 1015.6
20190322044207 13 281 0.0 0.0 0.00 0.00 0.00 59 1015.7
20190322043706 13 281 0.0 0.0 0.00 0.00 0.00 59 1015.5
20190322043207 13 281 0.0 0.0 0.00 0.00 0.00 59 1015.6
20190322042707 13 281 0.0 0.0 0.00 0.00 0.00 58 1015.5
20190322042210 13 281 0.0 0.0 0.00 0.00 0.00 58 1015.5
20190322041709 13 281 0.0 0.0 0.00 0.00 0.00 58 1015.5
20190322041207 13 281 0.0 0.0 0.00 0.00 0.00 58 1015.6
20190322040704 13 281 0.0 0.0 0.00 0.00 0.00 57 1015.5
20190322040208 13 281 0.0 0.0 0.00 0.00 0.00 57 1015.5
20190322035707 13 281 0.0 0.0 0.00 0.00 0.00 57 1015.5
20190322035207 13 281 0.0 0.0 0.00 0.00 0.00 56 1015.5
20190322034706 14 281 0.0 0.0 0.00 0.00 0.00 55 1015.5
20190322034208 14 281 0.0 0.0 0.00 0.00 0.00 55 1015.5
20190322033707 14 281 0.0 0.0 0.00 0.00 0.00 54 1015.4
20190322033207 14 281 0.0 0.0 0.00 0.00 0.00 54 1015.4
20190322032706 15 281 0.0 0.0 0.00 0.00 0.00 53 1015.4
20190322032208 15 281 0.0 0.0 0.00 0.00 0.00 53 1015.5
20190322031705 15 281 0.0 0.0 0.00 0.00 0.00 52 1015.4
20190322031207 15 281 0.0 0.0 0.00 0.00 0.00 52 1015.2
20190322030706 15 281 0.0 0.0 0.00 0.00 0.00 51 1015.2
20190322030206 15 281 0.0 0.0 0.00 0.00 0.00 51 1015.3
20190322025708 15 281 0.0 0.0 0.00 0.00 0.00 51 1015.2
20190322025206 15 281 0.0 0.0 0.00 0.00 0.00 51 1015.1
20190322024705 15 281 0.0 0.0 0.00 0.00 0.00 51 1014.9
20190322024207 15 281 0.0 0.0 0.00 0.00 0.00 51 1014.8
20190322023706 16 281 0.0 0.0 0.00 0.00 0.00 50 1014.7
20190322023206 16 281 0.0 0.0 0.00 0.00 0.00 50 1014.7
20190322022707 16 281 0.0 0.0 0.00 0.00 0.00 50 1014.6
20190322022207 16 281 0.0 0.0 0.00 0.00 0.00 49 1014.6
20190322021707 16 281 0.0 0.0 0.00 0.00 0.00 49 1014.6
20190322021207 16 279 0.0 11.3 0.00 0.00 0.00 49 1014.4
20190322020706 16 280 1.6 11.3 0.00 0.00 0.00 48 1014.2
20190322020207 16 275 1.6 11.3 0.00 0.00 0.00 48 1014.2
20190322015704 16 284 3.2 20.9 0.00 0.00 0.00 47 1014.1
20190322015207 17 275 8.0 20.9 0.00 0.00 0.00 48 1014.0
20190322014707 17 292 8.0 20.9 0.00 0.00 0.00 47 1013.9
20190322014206 17 302 4.8 19.3 0.00 0.00 0.00 46 1013.8
20190322013707 17 290 4.8 22.5 0.00 0.00 0.00 46 1013.8
20190322013207 17 311 8.0 24.1 0.00 0.00 0.00 46 1013.7
20190322012707 17 300 9.7 24.1 0.00 0.00 0.00 46 1013.6
20190322012208 17 283 11.3 24.1 0.00 0.00 0.00 45 1013.4
20190322011706 17 300 11.3 22.5 0.00 0.00 0.00 45 1013.3
20190322011206 17 289 12.9 22.5 0.00 0.00 0.00 45 1013.2
20190322010708 18 313 11.3 25.7 0.00 0.00 0.00 45 1013.2
20190322010207 18 303 11.3 25.7 0.00 0.00 0.00 44 1013.0
20190322005704 18 313 9.7 19.3 0.00 0.00 0.00 44 1012.8
20190322005207 18 284 8.0 22.5 0.00 0.00 0.00 44 1012.8
20190322004707 18 238 9.7 22.5 0.00 0.00 0.00 43 1012.8
20190322004207 18 290 9.7 22.5 0.00 0.00 0.00 42 1012.6
20190322003706 18 287 9.7 17.7 0.00 0.00 0.00 41 1012.6
20190322003207 18 267 6.4 17.7 0.00 0.00 0.00 41 1012.4
20190322002706 18 274 6.4 17.7 0.00 0.00 0.00 40 1012.3
20190322002207 18 263 8.0 20.9 0.00 0.00 0.00 39 1012.2
20190322001706 18 280 6.4 20.9 0.00 0.00 0.00 38 1012.1
20190322001207 19 245 8.0 20.9 0.00 0.00 0.00 38 1012.0
20190322000712 19 307 9.7 19.3 0.00 0.00 0.00 37 1011.9
20190322000207 19 282 9.7 19.3 0.00 0.00 0.00 36 1011.9
20190321235707 19 281 8.0 19.3 0.00 0.00 0.00 36 1011.8
20190321235207 20 284 8.0 16.1 0.00 0.00 0.00 36 1011.7
20190321234706 20 286 8.0 19.3 0.00 0.00 0.00 36 1011.6
20190321234208 20 246 6.4 24.1 0.00 0.00 0.00 36 1011.5
20190321233707 20 277 6.4 24.1 0.00 0.00 0.00 37 1011.4
20190321233207 20 273 6.4 20.9 0.00 0.00 0.00 38 1011.3
20190321232707 20 280 3.2 20.9 0.00 0.00 0.00 41 1011.3
20190321232207 21 291 0.0 17.7 0.00 0.00 0.00 48 1011.2
20190321231707 21 244 3.2 17.7 0.00 0.00 0.00 49 1011.1
20190321231207 21 236 4.8 24.1 0.00 0.00 0.00 48 1011.0
20190321230707 21 228 3.2 24.1 0.00 0.00 0.00 48 1010.9
20190321230208 21 225 4.8 24.1 0.00 0.00 0.00 48 1010.7
20190321225707 21 250 6.4 19.3 0.00 0.00 0.00 47 1010.6
20190321225207 22 205 3.2 17.7 0.00 0.00 0.00 47 1010.7
20190321224705 22 272 3.2 19.3 0.00 0.00 0.00 46 1010.6
20190321224208 22 240 4.8 20.9 0.00 0.00 0.00 46 1010.5
20190321223707 22 202 4.8 25.7 0.00 0.00 0.00 46 1010.5
20190321223207 22 230 6.4 25.7 0.00 0.00 0.00 45 1010.4
20190321222707 22 218 9.7 25.7 0.00 0.00 0.00 45 1010.4
20190321222208 22 232 8.0 25.7 0.00 0.00 0.00 44 1010.4
20190321221708 22 251 8.0 24.1 0.00 0.00 0.00 44 1010.4
20190321221206 22 243 9.7 32.2 0.00 0.00 0.00 43 1010.4
20190321220707 22 245 9.7 32.2 0.00 0.00 0.00 43 1010.4
20190321220207 22 250 6.4 32.2 0.00 0.00 0.00 42 1010.3
20190321215707 22 227 8.0 27.4 0.00 0.00 0.00 43 1010.3
20190321215207 22 232 9.7 24.1 0.00 0.00 0.00 42 1010.3
20190321214707 23 220 8.0 25.7 0.00 0.00 0.00 42 1010.2
20190321214207 23 221 8.0 25.7 0.00 0.00 0.00 42 1010.2
20190321213707 23 202 6.4 30.6 0.00 0.00 0.00 41 1010.3
20190321213207 23 240 9.7 30.6 0.00 0.00 0.00 41 1010.2
20190321212707 23 283 8.0 30.6 0.00 0.00 0.00 41 1010.3
20190321212204 23 246 8.0 25.7 0.00 0.00 0.00 41 1010.3
20190321211705 23 288 11.3 29.0 0.00 0.00 0.00 41 1010.2
20190321211207 23 232 9.7 30.6 0.00 0.00 0.00 40 1010.3
20190321210707 23 266 9.7 30.6 0.00 0.00 0.00 39 1010.3
20190321210206 23 275 11.3 30.6 0.00 0.00 0.00 40 1010.4
20190321205707 23 202 9.7 30.6 0.00 0.00 0.00 39 1010.3
20190321205207 23 227 11.3 30.6 0.00 0.00 0.00 40 1010.3
20190321204707 23 234 12.9 25.7 0.00 0.00 0.00 39 1010.3
20190321204206 23 249 9.7 30.6 0.00 0.00 0.00 39 1010.3
20190321203706 23 265 9.7 30.6 0.00 0.00 0.00 39 1010.4
20190321203207 23 213 9.7 30.6 0.00 0.00 0.00 38 1010.5
20190321202706 23 203 9.7 25.7 0.00 0.00 0.00 38 1010.5
20190321202207 23 283 6.4 25.7 0.00 0.00 0.00 39 1010.5
20190321201707 23 230 8.0 30.6 0.00 0.00 0.00 41 1010.6
20190321201206 23 222 11.3 32.2 0.00 0.00 0.00 41 1010.6
20190321200706 23 218 14.5 40.2 0.00 0.00 0.00 41 1010.7
20190321200207 23 238 14.5 40.2 0.00 0.00 0.00 40 1010.7
20190321195707 23 260 12.9 40.2 0.00 0.00 0.00 39 1010.8
20190321195207 23 259 12.9 29.0 0.00 0.00 0.00 39 1010.8
20190321194705 23 201 11.3 29.0 0.00 0.00 0.00 40 1010.9
20190321194207 23 246 11.3 29.0 0.00 0.00 0.00 40 1010.9
20190321193707 23 221 9.7 29.0 0.00 0.00 0.00 41 1011.1
20190321193206 23 291 9.7 35.4 0.00 0.00 0.00 40 1011.1
20190321192706 23 242 11.3 35.4 0.00 0.00 0.00 41 1011.2
20190321192207 23 262 8.0 35.4 0.00 0.00 0.00 41 1011.3
20190321191706 23 242 6.4 27.4 0.00 0.00 0.00 42 1011.2
20190321191207 23 254 11.3 27.4 0.00 0.00 0.00 41 1011.6